Time,TemperatureF,DewpointF,PressureIn,WindDirection,WindDirectionDegrees,WindSpeedMPH,WindSpeedGustMPH,Humidity,HourlyPrecipIn,Conditions,Clouds,dailyrainin,SolarRadiationWatts/m^2,SoftwareType,DateUTC
2013-05-21 00:04:00,63.2,62.3,29.97,NNW,334,0.0,1.0,97,0.00,,,0.00,0,Wunderground v.1.15,2013-05-21 04:04:00,
2013-05-21 00:09:00,63.1,62.2,29.97,NNW,334,0.0,1.0,97,0.00,,,0.00,0,Wunderground v.1.15,2013-05-21 04:09:00,
2013-05-21 00:14:00,63.1,62.2,29.97,NNW,331,0.0,0.0,97,0.00,,,0.00,0,Wunderground v.1.15,2013-05-21 04:14:00,
2013-05-21 00:19:00,63.0,62.1,29.97,NNW,331,1.0,1.0,97,0.00,,,0.00,0,Wunderground v.1.15,2013-05-21 04:19:00,
2013-05-21 00:24:00,63.0,62.1,29.96,NNW,343,0.0,0.0,97,0.00,,,0.00,0,Wunderground v.1.15,2013-05-21 04:24:00,
2013-05-21 00:29:00,62.8,62.2,29.97,NNW,343,0.0,0.0,98,0.00,,,0.00,0,Wunderground v.1.15,2013-05-21 04:29:00,
2013-05-21 00:34:00,62.7,62.1,29.97,NNW,343,0.0,0.0,98,0.00,,,0.00,0,Wunderground v.1.15,2013-05-21 04:34:00,
2013-05-21 00:39:00,62.6,62.0,29.97,NNW,343,1.0,1.0,98,0.00,,,0.00,0,Wunderground v.1.15,2013-05-21 04:39:00,
2013-05-21 00:44:00,62.5,61.6,29.97,NNW,343,1.0,1.0,97,0.00,,,0.00,0,Wunderground v.1.15,2013-05-21 04:44:00,
2013-05-21 00:49:00,62.5,61.6,29.97,NNW,343,1.0,1.0,97,0.00,,,0.00,0,Wunderground v.1.15,2013-05-21 04:49:00,
2013-05-21 00:59:00,62.3,61.7,29.96,NNW,343,1.0,1.0,98,0.00,,,0.00,0,Wunderground v.1.15,2013-05-21 04:59:00,
2013-05-21 01:04:00,62.2,61.6,29.96,NNW,343,1.0,1.0,98,0.00,,,0.00,0,Wunderground v.1.15,2013-05-21 05:04:00,
2013-05-21 01:09:00,62.2,61.6,29.96,NNW,343,0.0,1.0,98,0.00,,,0.00,0,Wunderground v.1.15,2013-05-21 05:09:00,
2013-05-21 01:14:00,62.1,61.5,29.96,NNW,343,0.0,0.0,98,0.00,,,0.00,0,Wunderground v.1.15,2013-05-21 05:14:00,
2013-05-21 01:19:00,62.1,61.5,29.96,NNW,343,0.0,0.0,98,0.00,,,0.00,0,Wunderground v.1.15,2013-05-21 05:19:00,
2013-05-21 01:24:00,62.1,61.5,29.96,NNW,343,0.0,0.0,98,0.00,,,0.00,0,Wunderground v.1.15,2013-05-21 05:24:00,
2013-05-21 01:29:00,62.0,61.4,29.96,NNW,343,0.0,0.0,98,0.00,,,0.00,0,Wunderground v.1.15,2013-05-21 05:29:00,
2013-05-21 01:34:00,62.0,61.4,29.95,NNW,343,0.0,0.0,98,0.00,,,0.00,0,Wunderground v.1.15,2013-05-21 05:34:00,
2013-05-21 01:44:00,61.9,61.3,29.94,NNW,343,0.0,0.0,98,0.00,,,0.00,0,Wunderground v.1.15,2013-05-21 05:44:00,
2013-05-21 01:49:00,61.9,61.3,29.94,NNW,342,0.0,0.0,98,0.00,,,0.00,0,Wunderground v.1.15,2013-05-21 05:49:00,
2013-05-21 01:54:00,61.9,61.3,29.94,NNW,342,0.0,0.0,98,0.00,,,0.00,0,Wunderground v.1.15,2013-05-21 05:54:00,
2013-05-21 02:04:00,61.9,61.3,29.93,NNW,342,1.0,1.0,98,0.00,,,0.00,0,Wunderground v.1.15,2013-05-21 06:04:00,
2013-05-21 02:14:00,61.9,61.3,29.93,NNW,342,1.0,1.0,98,0.00,,,0.00,0,Wunderground v.1.15,2013-05-21 06:14:00,
2013-05-21 02:19:00,61.8,61.2,29.93,NNW,342,0.0,1.0,98,0.00,,,0.00,0,Wunderground v.1.15,2013-05-21 06:19:00,
2013-05-21 02:24:00,61.8,61.2,29.92,NNW,342,0.0,0.0,98,0.00,,,0.00,0,Wunderground v.1.15,2013-05-21 06:24:00,
2013-05-21 02:29:00,61.7,61.1,29.92,NNW,342,0.0,0.0,98,0.00,,,0.00,0,Wunderground v.1.15,2013-05-21 06:29:00,
2013-05-21 02:39:00,61.6,61.3,29.92,NNW,342,1.0,1.0,99,0.00,,,0.00,0,Wunderground v.1.15,2013-05-21 06:39:00,
2013-05-21 02:44:00,61.6,61.0,29.92,NNW,342,1.0,1.0,98,0.00,,,0.00,0,Wunderground v.1.15,2013-05-21 06:44:00,
2013-05-21 02:49:00,61.5,60.9,29.92,NNW,342,0.0,1.0,98,0.00,,,0.00,0,Wunderground v.1.15,2013-05-21 06:49:00,
2013-05-21 02:54:00,61.5,60.9,29.92,NNW,342,0.0,0.0,98,0.00,,,0.00,0,Wunderground v.1.15,2013-05-21 06:54:00,
2013-05-21 02:59:00,61.5,61.2,29.92,North,349,0.0,1.0,99,0.00,,,0.00,0,Wunderground v.1.15,2013-05-21 06:59:00,
2013-05-21 03:09:00,61.5,61.2,29.92,North,349,0.0,0.0,99,0.00,,,0.00,0,Wunderground v.1.15,2013-05-21 07:09:00,
2013-05-21 03:19:00,61.4,61.1,29.91,North,355,0.0,0.0,99,0.00,,,0.00,0,Wunderground v.1.15,2013-05-21 07:19:00,
2013-05-21 03:29:00,61.3,61.0,29.92,North,355,0.0,0.0,99,0.00,,,0.00,0,Wunderground v.1.15,2013-05-21 07:29:00,
2013-05-21 03:39:00,61.4,61.1,29.91,North,360,0.0,0.0,99,0.00,,,0.00,0,Wunderground v.1.15,2013-05-21 07:39:00,
2013-05-21 03:49:00,61.3,61.0,29.91,North,360,1.0,1.0,99,0.00,,,0.00,0,Wunderground v.1.15,2013-05-21 07:49:00,
2013-05-21 03:59:00,61.2,60.9,29.92,North,360,1.0,1.0,99,0.00,,,0.00,0,Wunderground v.1.15,2013-05-21 07:59:00,
2013-05-21 04:04:00,61.2,60.9,29.91,North,360,0.0,0.0,99,0.00,,,0.00,0,Wunderground v.1.15,2013-05-21 08:04:00,
2013-05-21 04:09:00,61.1,60.8,29.91,North,360,0.0,0.0,99,0.00,,,0.00,0,Wunderground v.1.15,2013-05-21 08:09:00,
2013-05-21 04:14:00,61.1,60.8,29.91,North,360,0.0,0.0,99,0.00,,,0.00,0,Wunderground v.1.15,2013-05-21 08:14:00,
2013-05-21 04:19:00,61.1,60.8,29.91,North,360,0.0,0.0,99,0.00,,,0.00,0,Wunderground v.1.15,2013-05-21 08:19:00,
2013-05-21 04:29:00,61.0,60.7,29.92,North,360,0.0,0.0,99,0.00,,,0.00,0,Wunderground v.1.15,2013-05-21 08:29:00,
2013-05-21 04:34:00,61.0,60.7,29.92,North,360,0.0,0.0,99,0.00,,,0.00,0,Wunderground v.1.15,2013-05-21 08:34:00,
2013-05-21 04:44:00,60.9,60.6,29.92,North,360,0.0,0.0,99,0.00,,,0.00,0,Wunderground v.1.15,2013-05-21 08:44:00,
2013-05-21 04:49:00,61.0,60.7,29.92,North,360,0.0,0.0,99,0.00,,,0.00,0,Wunderground v.1.15,2013-05-21 08:49:00,
2013-05-21 04:54:00,61.0,60.7,29.92,North,360,0.0,0.0,99,0.00,,,0.00,0,Wunderground v.1.15,2013-05-21 08:54:00,
2013-05-21 04:59:00,61.2,60.9,29.92,North,360,0.0,0.0,99,0.00,,,0.00,0,Wunderground v.1.15,2013-05-21 08:59:00,
2013-05-21 05:04:00,61.2,60.9,29.92,North,360,0.0,0.0,99,0.00,,,0.00,0,Wunderground v.1.15,2013-05-21 09:04:00,
2013-05-21 05:09:00,61.2,60.9,29.92,North,360,0.0,0.0,99,0.00,,,0.00,0,Wunderground v.1.15,2013-05-21 09:09:00,
2013-05-21 05:14:00,61.3,61.0,29.93,North,360,0.0,0.0,99,0.00,,,0.00,0,Wunderground v.1.15,2013-05-21 09:14:00,
2013-05-21 05:19:00,61.2,60.9,29.93,North,360,0.0,0.0,99,0.00,,,0.00,0,Wunderground v.1.15,2013-05-21 09:19:00,
2013-05-21 05:29:00,61.2,60.9,29.92,North,360,0.0,0.0,99,0.00,,,0.00,0,Wunderground v.1.15,2013-05-21 09:29:00,
2013-05-21 05:39:00,61.2,60.9,29.92,North,360,0.0,0.0,99,0.00,,,0.00,11,Wunderground v.1.15,2013-05-21 09:39:00,
2013-05-21 05:44:00,61.1,60.8,29.92,North,360,0.0,1.0,99,0.00,,,0.01,12,Wunderground v.1.15,2013-05-21 09:44:00,
2013-05-21 05:54:00,61.1,60.8,29.92,North,360,0.0,0.0,99,0.00,,,0.01,19,Wunderground v.1.15,2013-05-21 09:54:00,
2013-05-21 05:59:00,61.1,60.8,29.93,North,360,0.0,0.0,99,0.00,,,0.01,25,Wunderground v.1.15,2013-05-21 09:59:00,
2013-05-21 06:09:00,61.1,60.8,29.92,North,360,0.0,0.0,99,0.00,,,0.01,32,Wunderground v.1.15,2013-05-21 10:09:00,
2013-05-21 06:14:00,61.3,61.3,29.91,North,360,0.0,0.0,100,0.00,,,0.01,35,Wunderground v.1.15,2013-05-21 10:14:00,
2013-05-21 06:24:00,61.5,61.5,29.91,North,360,0.0,0.0,100,0.00,,,0.01,67,Wunderground v.1.15,2013-05-21 10:24:00,
2013-05-21 06:29:00,61.7,61.7,29.92,North,360,0.0,0.0,100,0.00,,,0.01,77,Wunderground v.1.15,2013-05-21 10:29:00,
2013-05-21 06:39:00,62.3,62.3,29.92,North,360,0.0,1.0,100,0.00,,,0.01,125,Wunderground v.1.15,2013-05-21 10:39:00,
2013-05-21 06:44:00,62.8,62.8,29.92,North,360,0.0,0.0,100,0.00,,,0.01,134,Wunderground v.1.15,2013-05-21 10:44:00,
2013-05-21 06:49:00,63.4,63.4,29.91,North,360,0.0,0.0,100,0.00,,,0.01,153,Wunderground v.1.15,2013-05-21 10:49:00,
2013-05-21 06:59:00,64.3,64.3,29.91,North,11,0.0,0.0,100,0.00,,,0.01,179,Wunderground v.1.15,2013-05-21 10:59:00,
2013-05-21 07:04:00,64.7,64.7,29.92,North,5,0.0,0.0,100,0.00,,,0.01,202,Wunderground v.1.15,2013-05-21 11:04:00,
2013-05-21 07:09:00,65.0,65.0,29.92,NNE,17,0.0,1.0,100,0.00,,,0.01,211,Wunderground v.1.15,2013-05-21 11:09:00,
2013-05-21 07:14:00,65.1,65.1,29.92,ESE,106,0.0,1.0,100,0.00,,,0.01,227,Wunderground v.1.15,2013-05-21 11:14:00,
2013-05-21 07:19:00,65.4,65.4,29.92,ENE,63,0.0,1.0,100,0.00,,,0.01,250,Wunderground v.1.15,2013-05-21 11:19:00,
2013-05-21 07:24:00,65.7,65.7,29.92,NE,34,0.0,0.0,100,0.00,,,0.01,244,Wunderground v.1.15,2013-05-21 11:24:00,
2013-05-21 07:29:00,66.0,66.0,29.92,ESE,112,0.0,1.0,100,0.00,,,0.01,272,Wunderground v.1.15,2013-05-21 11:29:00,
2013-05-21 07:34:00,66.2,66.2,29.92,SSE,159,0.0,0.0,100,0.00,,,0.01,283,Wunderground v.1.15,2013-05-21 11:34:00,
2013-05-21 07:39:00,66.4,66.4,29.92,SSE,151,0.0,0.0,100,0.00,,,0.01,302,Wunderground v.1.15,2013-05-21 11:39:00,
2013-05-21 07:49:00,67.1,67.1,29.92,East,100,1.0,1.0,100,0.00,,,0.01,327,Wunderground v.1.15,2013-05-21 11:49:00,
2013-05-21 07:59:00,67.9,67.6,29.92,East,93,1.0,1.0,99,0.00,,,0.01,330,Wunderground v.1.15,2013-05-21 11:59:00,
2013-05-21 08:04:00,68.2,67.3,29.92,ESE,120,1.0,3.0,97,0.00,,,0.01,418,Wunderground v.1.15,2013-05-21 12:04:00,
2013-05-21 08:09:00,68.4,67.5,29.92,ESE,104,2.0,3.0,97,0.00,,,0.01,359,Wunderground v.1.15,2013-05-21 12:09:00,
2013-05-21 08:14:00,68.8,67.3,29.92,ESE,105,2.0,4.0,95,0.00,,,0.01,323,Wunderground v.1.15,2013-05-21 12:14:00,
2013-05-21 08:19:00,69.4,67.9,29.92,ESE,102,1.0,4.0,95,0.00,,,0.01,218,Wunderground v.1.15,2013-05-21 12:19:00,
2013-05-21 08:24:00,69.5,67.4,29.92,East,99,1.0,2.0,93,0.00,,,0.01,439,Wunderground v.1.15,2013-05-21 12:24:00,
2013-05-21 08:34:00,70.1,67.3,29.92,SE,126,1.0,2.0,91,0.00,,,0.01,450,Wunderground v.1.15,2013-05-21 12:34:00,
2013-05-21 08:44:00,71.0,67.9,29.92,ESE,117,1.0,1.0,90,0.00,,,0.01,492,Wunderground v.1.15,2013-05-21 12:44:00,
2013-05-21 08:49:00,71.7,68.9,29.92,SSW,212,1.0,2.0,91,0.00,,,0.01,506,Wunderground v.1.15,2013-05-21 12:49:00,
2013-05-21 08:54:00,71.9,68.2,29.92,SE,136,2.0,3.0,88,0.00,,,0.01,517,Wunderground v.1.15,2013-05-21 12:54:00,
2013-05-21 08:59:00,71.9,67.8,29.91,South,177,2.0,3.0,87,0.00,,,0.01,527,Wunderground v.1.15,2013-05-21 12:59:00,
2013-05-21 09:04:00,72.6,68.8,29.91,SSE,161,2.0,2.0,88,0.00,,,0.01,545,Wunderground v.1.15,2013-05-21 13:04:00,
2013-05-21 09:09:00,72.7,69.6,29.91,ENE,78,2.0,2.0,90,0.00,,,0.01,564,Wunderground v.1.15,2013-05-21 13:09:00,
2013-05-21 09:19:00,73.4,69.0,29.91,ESE,123,2.0,2.0,86,0.00,,,0.01,584,Wunderground v.1.15,2013-05-21 13:19:00,
2013-05-21 09:24:00,74.2,69.4,29.92,SE,146,2.0,2.0,85,0.00,,,0.01,596,Wunderground v.1.15,2013-05-21 13:24:00,
2013-05-21 09:29:00,74.2,69.4,29.91,ENE,74,2.0,2.0,85,0.00,,,0.01,612,Wunderground v.1.15,2013-05-21 13:29:00,
2013-05-21 09:39:00,75.0,69.5,29.91,ENE,59,1.0,2.0,83,0.00,,,0.01,629,Wunderground v.1.15,2013-05-21 13:39:00,
2013-05-21 09:44:00,75.5,70.0,29.92,NE,47,1.0,5.0,83,0.00,,,0.01,647,Wunderground v.1.15,2013-05-21 13:44:00,
2013-05-21 09:54:00,75.5,68.9,29.91,South,176,2.0,2.0,80,0.00,,,0.01,664,Wunderground v.1.15,2013-05-21 13:54:00,
2013-05-21 09:59:00,76.3,70.4,29.91,South,175,1.0,2.0,82,0.00,,,0.01,682,Wunderground v.1.15,2013-05-21 13:59:00,
2013-05-21 10:09:00,76.7,70.8,29.91,ESE,104,1.0,3.0,82,0.00,,,0.01,751,Wunderground v.1.15,2013-05-21 14:09:00,
2013-05-21 10:14:00,78.0,70.6,29.91,NE,55,1.0,2.0,78,0.00,,,0.01,751,Wunderground v.1.15,2013-05-21 14:14:00,
2013-05-21 10:24:00,77.7,69.1,29.91,SSE,166,2.0,2.0,75,0.00,,,0.01,784,Wunderground v.1.15,2013-05-21 14:24:00,
2013-05-21 10:29:00,78.5,70.7,29.91,NNW,347,2.0,2.0,77,0.00,,,0.01,858,Wunderground v.1.15,2013-05-21 14:29:00,
2013-05-21 10:34:00,78.8,69.0,29.91,NNE,28,2.0,3.0,72,0.00,,,0.01,765,Wunderground v.1.15,2013-05-21 14:34:00,
2013-05-21 10:44:00,78.4,69.4,29.91,SSW,193,2.0,2.0,74,0.00,,,0.01,856,Wunderground v.1.15,2013-05-21 14:44:00,
2013-05-21 10:49:00,78.1,69.5,29.90,East,96,2.0,2.0,75,0.00,,,0.01,802,Wunderground v.1.15,2013-05-21 14:49:00,
2013-05-21 10:59:00,78.6,70.0,29.90,NNE,24,2.0,4.0,75,0.00,,,0.01,854,Wunderground v.1.15,2013-05-21 14:59:00,
2013-05-21 11:04:00,78.4,69.0,29.90,NNE,24,2.0,2.0,73,0.00,,,0.01,338,Wunderground v.1.15,2013-05-21 15:04:00,
2013-05-21 11:09:00,77.6,68.3,29.89,SW,216,2.0,2.0,73,0.00,,,0.01,422,Wunderground v.1.15,2013-05-21 15:09:00,
2013-05-21 11:14:00,77.5,68.2,29.89,SE,132,1.0,1.0,73,0.00,,,0.01,422,Wunderground v.1.15,2013-05-21 15:14:00,
2013-05-21 11:19:00,78.0,69.0,29.89,WSW,246,1.0,1.0,74,0.00,,,0.01,830,Wunderground v.1.15,2013-05-21 15:19:00,
2013-05-21 11:24:00,79.1,70.5,29.89,SSE,147,2.0,2.0,75,0.00,,,0.01,821,Wunderground v.1.15,2013-05-21 15:24:00,
2013-05-21 11:34:00,80.2,69.5,29.89,SE,140,2.0,4.0,70,0.00,,,0.01,838,Wunderground v.1.15,2013-05-21 15:34:00,
2013-05-21 11:44:00,79.6,69.0,29.88,ESE,116,2.0,2.0,70,0.00,,,0.01,849,Wunderground v.1.15,2013-05-21 15:44:00,
2013-05-21 11:54:00,82.3,69.8,29.88,NNE,30,1.0,1.0,66,0.00,,,0.01,856,Wunderground v.1.15,2013-05-21 15:54:00,
2013-05-21 11:59:00,82.0,70.4,29.88,West,276,2.0,2.0,68,0.00,,,0.01,870,Wunderground v.1.15,2013-05-21 15:59:00,
2013-05-21 12:04:00,82.3,69.4,29.87,SSW,196,2.0,2.0,65,0.00,,,0.01,884,Wunderground v.1.15,2013-05-21 16:04:00,
2013-05-21 12:09:00,82.7,69.7,29.87,East,87,2.0,2.0,65,0.00,,,0.01,963,Wunderground v.1.15,2013-05-21 16:09:00,
2013-05-21 12:14:00,82.3,70.7,29.87,SSE,162,2.0,2.0,68,0.00,,,0.01,766,Wunderground v.1.15,2013-05-21 16:14:00,
2013-05-21 12:19:00,82.6,70.5,29.87,SSW,192,2.0,2.0,67,0.00,,,0.01,944,Wunderground v.1.15,2013-05-21 16:19:00,
2013-05-21 12:24:00,82.0,69.5,29.87,NNE,17,1.0,2.0,66,0.00,,,0.01,933,Wunderground v.1.15,2013-05-21 16:24:00,
2013-05-21 12:29:00,83.0,70.0,29.87,NNW,327,1.0,3.0,65,0.00,,,0.01,965,Wunderground v.1.15,2013-05-21 16:29:00,
2013-05-21 12:39:00,82.6,68.3,29.87,ENE,68,2.0,3.0,62,0.00,,,0.01,287,Wunderground v.1.15,2013-05-21 16:39:00,
2013-05-21 12:44:00,83.3,70.8,29.86,West,259,2.0,2.0,66,0.00,,,0.01,1062,Wunderground v.1.15,2013-05-21 16:44:00,
2013-05-21 12:49:00,82.8,68.9,29.86,NNW,345,2.0,5.0,63,0.00,,,0.01,288,Wunderground v.1.15,2013-05-21 16:49:00,
2013-05-21 12:54:00,81.8,69.8,29.86,NW,320,2.0,2.0,67,0.00,,,0.01,1048,Wunderground v.1.15,2013-05-21 16:54:00,
2013-05-21 12:59:00,82.1,70.9,29.86,SSE,161,1.0,2.0,69,0.00,,,0.01,1028,Wunderground v.1.15,2013-05-21 16:59:00,
2013-05-21 13:04:00,82.0,69.1,29.86,South,177,1.0,1.0,65,0.00,,,0.01,202,Wunderground v.1.15,2013-05-21 17:04:00,
2013-05-21 13:09:00,82.1,70.5,29.86,South,175,1.0,2.0,68,0.00,,,0.01,1009,Wunderground v.1.15,2013-05-21 17:09:00,
2013-05-21 13:19:00,82.5,70.9,29.86,South,176,2.0,2.0,68,0.00,,,0.01,316,Wunderground v.1.15,2013-05-21 17:19:00,
2013-05-21 17:35:00,80.4,68.9,29.81,ESE,115,1.0,1.0,68,0.00,,,0.01,113,Wunderground v.1.15,2013-05-21 21:35:00,